EDT,Max TemperatureF,Mean TemperatureF,Min TemperatureF,Max Dew PointF,MeanDew PointF,Min DewpointF,Max Humidity, Mean Humidity, Min Humidity, Max Sea Level PressureIn, Mean Sea Level PressureIn, Min Sea Level PressureIn, Max VisibilityMiles, Mean VisibilityMiles, Min VisibilityMiles, Max Wind SpeedMPH, Mean Wind SpeedMPH, Max Gust SpeedMPH,PrecipitationIn, CloudCover, Events, WindDirDegrees
2013-10-1,77,60,44,58,50,41,93,75,43,30.03,29.98,29.91,10,9,6,8,1,,0.01,0,,279
2013-10-2,80,64,48,60,54,45,90,74,47,30.03,29.97,29.92,10,8,4,9,2,17,0.00,0,,277
2013-10-3,75,60,46,56,50,44,93,73,37,30.14,30.09,30.04,10,8,2,6,2,,0.00,0,,240
2013-10-4,82,68,54,64,58,52,93,77,56,30.09,30.05,29.99,10,8,4,6,1,,0.00,3,,87
2013-10-5,75,68,60,63,59,55,93,79,62,30.12,30.08,30.05,10,9,3,7,1,,0.00,6,,125
2013-10-6,64,62,60,63,60,57,94,91,82,30.16,30.11,30.08,5,2,1,13,5,17,0.05,8,Rain,105
2013-10-7,73,65,57,66,62,49,94,85,74,30.07,29.92,29.79,10,6,2,16,6,33,0.19,8,Rain,178
2013-10-8,64,54,43,48,41,36,93,67,37,30.37,30.22,30.00,10,10,8,15,5,28,0.02,0,,324
2013-10-9,62,50,39,45,41,37,93,71,47,30.45,30.39,30.34,10,10,10,13,3,18,0.00,0,,66
2013-10-10,61,54,48,50,46,42,83,74,67,30.34,30.24,30.14,10,10,10,9,6,,0.00,5,Rain,48
2013-10-11,69,61,54,55,51,45,80,71,56,30.13,30.10,30.06,10,10,9,10,6,,0.00,7,,53
2013-10-12,72,60,48,54,47,40,80,64,45,30.34,30.23,30.13,10,10,10,16,7,24,0.00,4,,66
2013-10-13,64,55,46,48,46,44,93,76,54,30.42,30.38,30.33,10,10,7,12,5,17,0.00,3,,70
2013-10-14,68,52,37,48,41,36,93,82,48,30.40,30.35,30.26,10,6,0,9,0,,0.00,2,Fog,170
2013-10-15,71,57,44,52,44,34,90,70,34,30.29,30.22,30.15,10,9,6,10,1,,0.00,1,,128
2013-10-16,63,54,44,55,47,41,93,76,59,30.15,30.06,29.94,10,10,7,7,1,,0.00,5,,115
2013-10-17,73,66,59,59,57,53,93,79,49,29.93,29.84,29.70,10,7,2,13,5,22,0.03,6,Rain,206
2013-10-18,66,56,42,59,47,38,88,66,37,29.99,29.81,29.67,10,9,5,14,9,22,0.01,2,Rain,248
2013-10-19,62,50,37,52,42,34,89,71,42,30.00,29.90,29.77,10,9,4,9,2,21,0.00,3,Rain,187
2013-10-20,60,50,37,52,38,31,88,64,35,30.08,29.91,29.75,10,10,7,13,6,21,0.01,1,,266
2013-10-21,64,49,34,43,35,30,92,62,31,30.17,30.08,29.99,10,10,7,10,3,18,0.00,0,,198
2013-10-22,64,52,39,47,42,36,93,73,50,29.99,29.84,29.76,10,10,7,10,4,18,0.00,3,,232
2013-10-23,52,42,32,37,32,28,89,69,41,29.83,29.74,29.63,10,10,7,7,2,,0.00,3,Rain,310
2013-10-24,52,43,35,33,27,24,78,57,36,29.97,29.87,29.74,10,10,10,17,7,25,0.00,1,,256
2013-10-25,51,40,28,29,26,24,85,61,38,30.22,30.10,29.99,10,10,10,13,5,22,0.00,2,,285
2013-10-26,53,40,27,31,26,24,89,57,35,30.21,30.07,29.90,10,10,10,21,5,26,0.00,1,,224
2013-10-27,55,46,34,32,29,25,82,54,34,30.12,29.96,29.84,10,10,10,14,5,23,0.00,3,Rain,261
2013-10-28,60,44,28,32,29,25,89,59,32,30.34,30.21,30.12,10,10,10,13,3,23,0.00,1,,306
2013-10-29,48,39,30,29,25,22,82,56,42,30.45,30.40,30.36,10,10,10,7,3,,0.00,5,,22
2013-10-30,54,43,32,45,36,27,93,78,58,30.35,30.27,30.21,10,8,2,5,1,,0.00,5,,255
2013-10-31,62,48,35,56,43,32,100,88,77,30.25,30.14,29.82,9,4,0,12,1,18,0.00,7,Fog-Rain,176